Simultaneous Nadir Overpasses (SNOs) Predictions

Prediction of SNOs between GOES-14 and NOAA-20 Satellite Orbit:

Table of predicted SNOs for the next 14.0 days since TLE Epoch: 6/5/2021
Index Date Time (GOES-14) GOES-14 Lat,Lon NOAA-20 Lat,Lon Distance(km) Time Diff (sec)
1 06/07/2021 08:24:15 0.04,-104.12 0.29,-105.17 120.37 80
2 06/08/2021 08:08:10 0.05,-104.12 -0.72,-100.64 396.42 80
3 06/09/2021 20:27:29 -0.02,-104.33 -0.37,-105.97 186.14 80
4 06/10/2021 20:11:24 -0.03,-104.33 0.64,-101.44 330.00 80
5 06/12/2021 08:30:31 0.00,-104.10 0.58,-106.70 295.63 80
6 06/13/2021 08:14:27 0.02,-104.10 -0.44,-102.17 220.94 80
7 06/14/2021 20:33:44 0.01,-104.32 -0.71,-107.49 360.85 80
8 06/15/2021 20:17:40 -0.01,-104.32 0.30,-102.96 155.41 80
9 06/17/2021 08:36:47 -0.03,-104.09 0.92,-108.22 470.96 80
10 06/18/2021 08:20:43 -0.01,-104.09 -0.10,-103.69 45.65 80
